Location: Sternwarte_Laufen
(47.9344°N, 12.9346°E)
Time: 16:29:27
(UTC+02:00)

Envisat - Visible Passes

Search period start: 10 May 2026 00:00
Search period end: 20 May 2026 00:00
Orbit: 761 x 762 km, 98.4° (Epoch: 10 May)

Date Brightness Start Highest point End Pass type
(mag) Time Alt. Az. Time Alt. Az. Time Alt. Az.
10 May 5.4 02:28:06 10° NE 02:31:01 15° E 02:33:54 10° ESE visible
10 May 3.0 04:05:28 10° NNE 04:10:33 79° WNW 04:14:59 14° SSW visible
11 May 3.7 03:27:44 10° NNE 03:32:41 50° E 03:36:47 14° S visible
12 May 4.8 02:50:31 10° NE 02:54:36 24° E 02:58:35 10° SE visible
12 May 3.4 04:28:53 10° N 04:33:48 50° WNW 04:38:39 10° SW visible
13 May 5.5 02:14:52 10° ENE 02:16:17 11° E 02:17:42 10° ESE visible
13 May 3.1 03:50:57 10° NNE 03:56:02 79° ESE 04:00:30 14° S visible
14 May 4.1 03:13:22 10° NNE 03:18:06 37° E 03:22:18 12° SSE visible
14 May 3.9 04:52:27 10° N 04:56:57 33° WNW 05:01:25 10° SW visible
15 May 5.2 02:36:28 10° NE 02:39:56 18° E 02:43:21 10° SE visible
15 May 3.1 04:14:17 10° N 04:19:19 66° WNW 04:24:13 11° SSW visible
16 May 3.4 03:36:28 10° NNE 03:41:30 60° E 03:46:00 13° S visible
17 May 4.6 02:59:05 10° NE 03:03:28 28° E 03:07:48 10° SSE visible
17 May 3.6 04:37:45 10° N 04:42:31 42° WNW 04:47:16 10° SW visible
18 May 5.4 02:22:44 10° ENE 02:25:13 14° E 02:27:41 10° ESE visible
18 May 3.0 03:59:43 10° NNE 04:04:50 87° WNW 04:09:42 11° SSW visible
19 May 3.9 03:22:03 10° NNE 03:26:55 45° E 03:31:29 11° S visible
